STARLINK-32922, 62926

Orbit data source: Space-Track

STARLINK-32922, 62926 is a payload satellite owned by SpaceX/Seattle (US) in LEO that was launched on Sat, 08 Feb 2025 UTC via an FALCON 9 launch vehicle from the Air Force Eastern Test Range (AFETR). Payload-class satellites include a variety of spacecraft equipped with specific instruments for various scientific and technological missions. These include communications satellites like Starlink; space stations such as the ISS; scientific satellites like the Hubble; Earth observation satellites from companies like Planet Labs, Umbra, and HawkEye 360; GPS; miniature CubeSats for education and research; and military/defense satellites.

Loading next visibility...
Identifier
62926, 2025-027V
Orbit
LEO
Last TLE update
18 hours ago
Origin
Manufacturer
SpaceX/Seattle
Mission
Operational Commercial Communications
Bus & Motor
STARLINK V2M, Unknown motor
Mass
730 kg wet, ~700 kg dry
Launch date (UTC)
2025-02-08 (5 months ago)
Launch vehicle
FALCON 9
Launch site
Air Force Eastern Test Range (AFETR)
Object type
Payload
Rocket body
Debris
Shape & HBR
Box + 2 Pan, 29 m
Radar Cross Section
33.884 m², Large (>1 m²)

Expand to show TLE details & history

TLE from 18 hours ago
0 STARLINK-32922
1 62926U 25027V   25182.49550513  .00010142  00000-0  37751-3 0  9995
2 62926  43.0042 107.6316 0000845 283.3742  76.7015 15.27584315 23125
Epoch: 2025-07-01T11:53Z
TLE epoch observation values (Epoch: 2025-07-01T11:53:31.643Z)
Latitude
-0.00004°
Longitude
9.45958°
Altitude
482.679 km
Speed
7.626 km/s
True Right ascension
07h 10m 31s
True Declination
0° 00' 00"
Sunlit
Object was in daylight at epoch
Visualization orbit readout
Latitude
-40.09206°
Longitude
-111.00939°
Altitude
494.617 km
Speed
7.618 km/s
Apparent Right ascension
02h 22m 20s
Apparent Declination
-52° 54' 40"
Sunlit
Object is in full shadow
Visualization observer readout
Local Sidereal Time
17:56:21
Azimuth
128.213° SE
Elevation
-51.901°
Doppler factor
1
Orbital elements
Apogee altitude
485.561 km
Perigee altitude
484.401 km
Semi-major axis
6,863.118 km
Eccentricity
0.00008
Inclination
43.0042°
RAAN
107.6316°
Arg. of periapsis
283.3742°
True anomaly
Unknown
Mean anomaly
76.7015°
Eccentric anomaly
Unknown
Mean motion
3.81734 °/min
Orbital period
94.31 mins
BSTAR
0.00037751
Loading maneuver chart data...
Loading SW <> Apogee altitude chart data...
Loading historical data...
Loading historical data...
Loading historical data...
Loading historical data...
Loading historical data...
Loading historical data...
Loading historical data...

STARLINK-32922 Visibility forecast

Observer location: undefined°, undefined°

Span
Click to sort rows by Start time (UTC) header in descending order
Start Az.
Max El. time (UTC)
Max El. Az.
Max El.
End time (UTC)
End Az.
4 mins2025-07-02 21:01:39.599Z174.423° S2025-07-02 21:03:39.599Z139.994° SSE14.713°2025-07-02 21:05:39.599Z106.871° ESE
6 mins2025-07-02 22:39:39.599Z236.165° WSW2025-07-02 22:41:39.599Z196.852° SSW41.413°2025-07-02 22:45:39.599Z74.69° E
6 mins2025-07-03 00:18:39.599Z282.193° WNW2025-07-03 00:20:39.599Z326.746° NNW37.578°2025-07-03 00:24:39.599Z72.852° E
6 mins2025-07-03 01:57:39.599Z292.365° WNW2025-07-03 02:00:39.599Z50.613° ENE41.167°2025-07-03 02:03:39.599Z95.177° ESE
5 mins2025-07-03 03:36:39.599Z270.827° WNW2025-07-03 03:38:39.599Z228.875° WSW30.69°2025-07-03 03:41:39.599Z147.003° SSE
|